| time (UTC) | temp F | wind direction | speed knots | gust knots | rain 1hr in | rain 24hr in | rain mn in | humidity % | barometer mb |
| 20260505033026 | 59 | 244 | 0.0 | 0.0 | 0.00 | 0.00 | 0.00 | 76 | 1017.2 |
| 20260505031525 | 59 | 244 | 0.0 | 0.0 | 0.00 | 0.00 | 0.00 | 75 | 1017.2 |
| 20260505030030 | 60 | 244 | 0.0 | 0.0 | 0.00 | 0.00 | 0.00 | 75 | 1017.2 |
| 20260505024526 | 60 | 244 | 0.0 | 0.0 | 0.00 | 0.00 | 0.00 | 74 | 1017.2 |
| 20260505023032 | 60 | 244 | 0.0 | 0.0 | 0.00 | 0.00 | 0.00 | 73 | 1017.1 |
| 20260505021527 | 60 | 244 | 0.0 | 0.9 | 0.00 | 0.00 | 0.00 | 71 | 1017.0 |
| 20260505020023 | 60 | 244 | 0.0 | 0.0 | 0.00 | 0.00 | 0.00 | 68 | 1016.8 |
| 20260505014522 | 61 | 244 | 0.0 | 1.7 | 0.00 | 0.00 | 0.00 | 67 | 1016.7 |
| 20260505013023 | 62 | 244 | 0.0 | 0.0 | 0.00 | 0.00 | 0.00 | 62 | 1016.3 |
| 20260505011620 | 63 | 244 | 0.0 | 0.0 | 0.00 | 0.00 | 0.00 | 60 | 1016.0 |
| 20260505010019 | 64 | 244 | 0.0 | 0.0 | 0.00 | 0.00 | 0.00 | 57 | 1015.9 |
| 20260505004531 | 66 | 244 | 0.0 | 0.0 | 0.00 | 0.00 | 0.00 | 56 | 1015.8 |
| 20260505003018 | 66 | 244 | 0.0 | 0.0 | 0.00 | 0.00 | 0.00 | 54 | 1015.5 |
| 20260505001516 | 66 | 244 | 0.0 | 0.0 | 0.00 | 0.00 | 0.00 | 55 | 1015.4 |
| 20260505000027 | 68 | 244 | 0.0 | 0.0 | 0.00 | 0.00 | 0.00 | 55 | 1015.4 |
| 20260504234516 | 69 | 244 | 0.0 | 0.0 | 0.00 | 0.00 | 0.00 | 56 | 1015.1 |
| 20260504233015 | 71 | 244 | 0.0 | 0.9 | 0.00 | 0.00 | 0.00 | 52 | 1015.1 |
| 20260504231514 | 74 | 294 | 0.0 | 2.6 | 0.00 | 0.00 | 0.00 | 45 | 1015.1 |
| 20260504230017 | 75 | 162 | 0.0 | 2.6 | 0.00 | 0.00 | 0.00 | 45 | 1015.1 |
| 20260504224513 | 76 | 167 | 0.9 | 2.6 | 0.00 | 0.00 | 0.00 | 40 | 1015.2 |
| 20260504223012 | 76 | 261 | 0.0 | 5.2 | 0.00 | 0.00 | 0.00 | 38 | 1015.2 |
| 20260504221517 | 77 | 229 | 0.9 | 2.6 | 0.00 | 0.00 | 0.00 | 35 | 1015.1 |
| 20260504220011 | 79 | 229 | 0.0 | 8.7 | 0.00 | 0.00 | 0.00 | 33 | 1015.0 |
| 20260504214512 | 78 | 279 | 0.0 | 7.0 | 0.00 | 0.00 | 0.00 | 34 | 1015.0 |
| 20260504213031 | 79 | 263 | 0.0 | 3.5 | 0.00 | 0.00 | 0.00 | 32 | 1015.0 |
| 20260504211515 | 80 | 242 | 0.0 | 1.7 | 0.00 | 0.00 | 0.00 | 31 | 1015.0 |
| 20260504210011 | 80 | 242 | 0.0 | 1.7 | 0.00 | 0.00 | 0.00 | 32 | 1015.1 |
| 20260504204506 | 80 | 246 | 0.0 | 4.3 | 0.00 | 0.00 | 0.00 | 28 | 1015.1 |
| 20260504203009 | 81 | 251 | 0.9 | 2.6 | 0.00 | 0.00 | 0.00 | 31 | 1015.1 |
| 20260504201505 | 80 | 275 | 0.9 | 6.1 | 0.00 | 0.00 | 0.00 | 37 | 1015.2 |
| 20260504200003 | 80 | 265 | 1.7 | 3.5 | 0.00 | 0.00 | 0.00 | 30 | 1015.5 |
| 20260504194608 | 79 | 288 | 0.9 | 8.7 | 0.00 | 0.00 | 0.00 | 32 | 1015.6 |
| 20260504193109 | 79 | 229 | 0.0 | 5.2 | 0.00 | 0.00 | 0.00 | 33 | 1015.8 |
| 20260504191555 | 79 | 277 | 0.9 | 3.5 | 0.00 | 0.00 | 0.00 | 30 | 1016.2 |
| 20260504190112 | 79 | 227 | 1.7 | 5.2 | 0.00 | 0.00 | 0.00 | 33 | 1016.3 |
| 20260504184559 | 78 | 216 | 1.7 | 6.1 | 0.00 | 0.00 | 0.00 | 33 | 1016.5 |
| 20260504183050 | 78 | 229 | 1.7 | 6.1 | 0.00 | 0.00 | 0.00 | 33 | 1016.7 |
| 20260504181547 | 77 | 281 | 3.5 | 8.7 | 0.00 | 0.00 | 0.00 | 33 | 1016.8 |
| 20260504180048 | 78 | 211 | 1.7 | 4.3 | 0.00 | 0.00 | 0.00 | 31 | 1016.9 |
| 20260504174543 | 76 | 318 | 1.7 | 5.2 | 0.00 | 0.00 | 0.00 | 35 | 1017.0 |
| 20260504173048 | 75 | 223 | 2.6 | 7.8 | 0.00 | 0.00 | 0.00 | 35 | 1017.1 |
| 20260504171537 | 75 | 232 | 0.9 | 7.0 | 0.00 | 0.00 | 0.00 | 36 | 1017.2 |
| 20260504081520 | 44 | 199 | 0.0 | 0.0 | 0.00 | 0.01 | 0.00 | 91 | 1018.2 |
| 20260504050004 | 46 | 199 | 0.0 | 0.0 | 0.00 | 0.01 | 0.00 | 86 | 1018.6 |
| 20260504044508 | 46 | 199 | 0.0 | 0.0 | 0.00 | 0.01 | 0.00 | 84 | 1018.5 |
| 20260504043001 | 47 | 199 | 0.0 | 0.0 | 0.00 | 0.01 | 0.00 | 83 | 1018.5 |
| 20260504041600 | 47 | 199 | 0.0 | 0.0 | 0.00 | 0.01 | 0.00 | 83 | 1018.4 |
| 20260504040106 | 47 | 199 | 0.0 | 0.0 | 0.00 | 0.01 | 0.00 | 82 | 1018.4 |
| 20260504034604 | 48 | 199 | 0.0 | 0.0 | 0.00 | 0.01 | 0.01 | 82 | 1018.3 |